Tracking 30692 objects as of 16-Jun-2025
HD Live streaming from Space Station
objects crossing your sky now

STARLINK-4719

Track STARLINK-4719 now!
10-day predictions
STARLINK-4719 is classified as:


NORAD ID: 53774
Int'l Code: 2022-111B
Perigee: 545.9 km
Apogee: 547.8 km
Inclination: 53.2 °
Period: 95.4 minutes
Semi major axis: 6917 km
RCS: Unknown
Launch date: September 11, 2022
Source: United States (US)
Launch site: AIR FORCE EASTERN TEST RANGE (AFETR)
Your satellite tracking list
Your tracking list is empty




NASA's NSSDC Master Catalog

Two Line Element Set (TLE):
1 53774U 22111B   25167.37944537  .00001687  00000-0  12406-3 0  9994
2 53774  53.2178  39.5155 0001375  88.8536 271.2614 15.08838705153508
Source of the keplerian elements: AFSPC